STARLINK-3304, 50161

Orbit data source: Space-Track

STARLINK-3304, 50161 is a payload satellite owned by SpaceX/Seattle (US) in LEO that was launched on Sat, 18 Dec 2021 UTC via an FALCON 9 launch vehicle from the Air Force Western Test Range (AFWTR). Payload-class satellites include a variety of spacecraft equipped with specific instruments for various scientific and technological missions. These include communications satellites like Starlink; space stations such as the ISS; scientific satellites like the Hubble; Earth observation satellites from companies like Planet Labs, Umbra, and HawkEye 360; GPS; miniature CubeSats for education and research; and military/defense satellites.

Loading next visibility...
Identifier
50161, 2021-125F
Orbit
LEO
Country
Flag of USUS
Related business
Manufacturer
SpaceX/Seattle
Mission
Operational Commercial Communications
Bus & Motor
STARLINK, Unknown motor
Mass
290 kg wet, ~270 kg dry
Launch date (UTC)
2021-12-18 (5 years ago)
Launch vehicle
FALCON 9
Launch site
Air Force Western Test Range (AFWTR)
Object type
Payload
Rocket body
Debris
Shape & HBR
Box + 1 Pan, 10.1 m
Radar Cross Section
13.562 m², Large (>1 m²)

Expand to show TLE details & history
Last TLE update: 7 hours ago

TLE from 7 hours ago
0 STARLINK-3304
1 50161U 21125F   26170.25151565  .00000080  00000-0  23136-4 0  9997
2 50161  53.1607 163.0841 0001184  83.7743 276.3383 15.08832367251784
Epoch: 2026-06-19T06:02Z
TLE epoch observation values (Epoch: 2026-06-19T06:02:10.952Z)
Latitude
-0.00003°
Longitude
165.05528°
Altitude
540.568 km
Speed
7.593 km/s
True Right ascension
10h 52m 20s
True Declination
0° 00' 00"
Sunlit
Object was in daylight at epoch
Visualization orbit readout
Latitude
Unknown
Longitude
Unknown
Altitude
Unknown
Speed
Unknown
Apparent Right ascension
Unknown
Apparent Declination
Unknown
Sunlit
N/A
Visualization observer readout
Local Sidereal Time
23:59:49
Azimuth
Unknown
Elevation
Unknown
Doppler factor
Unknown
Orbital elements
Apogee altitude
540.84 km
Perigee altitude
539.202 km
Semi-major axis
6,918.158 km
Eccentricity
0.00012
Inclination
53.1607°
RAAN
163.0841°
Arg. of periapsis
83.7743°
True anomaly
276.32482°
Mean anomaly
276.3383°
Eccentric anomaly
276.33156°
Mean motion
3.77188 °/min
Orbital period
95.44 mins
BSTAR
0.000023136
Loading maneuver chart data...
Computing Atmospheric mass density...
Loading historical data...
Loading historical data...
Loading historical data...
Loading historical data...
Loading historical data...
Loading historical data...
Loading historical data...

Documentation

Showing up to 5 results
|